Total_Precipitation_Accumulation
1.89 1.95 1.89 1.85 1.82 1.70 1.64 1.70 1.76 1.62 1.47 1.26 1.15 1.07 1.11 1.10 1.21 1.00 0.88 0.83 0.66 0.55 0.47 0.39 0.38 0.43 0.48 0.58 0.70 0.75 0.81 0.83 0.83 0.84 0.82 0.84 0.85 0.85
1.88 1.98 1.97 1.97 2.00 1.90 1.76 1.70 1.64 1.63 1.54 1.32 1.12 1.01 1.16 1.10 1.22 1.02 0.95 1.02 0.82 0.67 0.56 0.49 0.44 0.44 0.43 0.42 0.48 0.50 0.51 0.54 0.61 0.70 0.80 0.96 1.02 0.96
1.69 1.77 1.87 1.97 2.08 2.09 2.05 1.89 1.75 1.71 1.60 1.43 1.22 1.05 1.17 1.22 1.19 1.13 1.03 0.91 0.84 0.77 0.66 0.60 0.55 0.48 0.47 0.46 0.44 0.44 0.43 0.42 0.42 0.48 0.59 0.73 1.00 1.05
1.50 1.46 1.56 1.67 1.81 1.96 2.02 1.96 1.94 1.84 1.73 1.67 1.50 1.24 1.11 1.15 1.19 1.26 1.17 1.00 0.92 0.95 0.86 0.74 0.66 0.58 0.52 0.47 0.44 0.41 0.40 0.40 0.39 0.38 0.42 0.49 0.60 0.76
1.30 1.27 1.28 1.38 1.52 1.64 1.73 1.81 1.92 1.96 1.92 1.82 1.71 1.51 1.26 1.23 1.28 1.28 1.27 1.30 1.12 1.04 1.03 0.97 0.87 0.78 0.71 0.62 0.53 0.46 0.42 0.40 0.40 0.39 0.37 0.39 0.44 0.54
1.06 1.06 1.10 1.13 1.20 1.31 1.46 1.67 1.85 1.95 1.99 1.97 1.88 1.64 1.45 1.40 1.37 1.36 1.40 1.42 1.37 1.20 1.11 1.06 1.08 0.99 0.86 0.75 0.66 0.56 0.52 0.49 0.47 0.45 0.42 0.37 0.34 0.37
0.85 0.77 0.79 0.84 0.85 0.93 0.99 1.26 1.51 1.70 1.81 1.88 1.85 1.68 1.47 1.37 1.27 1.30 1.39 1.51 1.54 1.48 1.39 1.19 1.12 1.06 1.00 0.90 0.79 0.68 0.59 0.55 0.53 0.50 0.49 0.49 0.46 0.41
0.74 0.68 0.66 0.70 0.62 0.59 0.62 0.84 1.12 1.30 1.46 1.63 1.69 1.55 1.43 1.34 1.37 1.37 1.35 1.35 1.35 1.28 1.26 1.30 1.23 1.14 1.05 0.98 0.97 0.89 0.80 0.69 0.61 0.56 0.55 0.56 0.59 0.60
0.77 0.79 0.72 0.68 0.75 0.66 0.60 0.67 0.76 0.87 1.01 1.24 1.45 1.45 1.55 1.47 1.35 1.29 1.28 1.28 1.25 1.28 1.24 1.23 1.19 1.11 1.01 0.97 1.05 0.98 0.93 0.87 0.78 0.72 0.66 0.64 0.64 0.66
0.83 0.92 0.93 0.86 0.83 0.89 0.83 0.84 0.82 0.76 0.83 0.74 0.93 1.29 1.43 1.48 1.41 1.40 1.46 1.35 1.25 1.25 1.20 1.18 1.18 1.11 0.98 0.91 0.94 0.86 0.80 0.77 0.79 0.82 0.84 0.84 0.80 0.77
0.78 0.89 0.92 0.85 0.90 0.96 1.06 1.10 1.02 0.89 1.03 1.04 0.95 1.04 1.16 1.21 1.29 1.33 1.36 1.28 1.23 1.18 1.04 0.96 0.94 0.98 1.00 0.94 0.91 0.91 0.82 0.74 0.69 0.66 0.64 0.67 0.72 0.79
0.80 0.85 0.99 0.90 0.87 0.86 0.93 1.05 1.03 0.92 0.81 0.85 0.82 0.72 0.67 0.77 0.95 1.08 1.30 1.37 1.29 1.18 1.03 0.93 0.93 0.90 0.91 0.85 0.78 0.79 0.78 0.79 0.74 0.66 0.62 0.58 0.59 0.61
0.91 0.95 0.93 0.99 0.83 0.80 0.80 0.80 0.87 0.86 0.83 0.88 0.94 0.86 0.76 0.71 0.75 0.81 0.97 1.13 1.21 1.11 1.01 0.90 0.89 0.87 0.80 0.71 0.68 0.69 0.69 0.67 0.64 0.64 0.62 0.60 0.59 0.54
0.80 0.80 0.76 0.83 0.67 0.60 0.56 0.62 0.68 0.71 0.78 0.91 0.92 0.89 0.89 0.84 0.79 0.79 0.83 0.89 0.95 0.99 0.97 0.91 0.84 0.80 0.75 0.66 0.63 0.65 0.64 0.60 0.56 0.54 0.53 0.61 0.63 0.65
0.52 0.60 0.60 0.58 0.53 0.46 0.50 0.54 0.56 0.58 0.68 0.75 0.79 0.77 0.78 0.82 0.81 0.79 0.78 0.79 0.77 0.72 0.69 0.72 0.77 0.79 0.77 0.70 0.61 0.61 0.63 0.59 0.54 0.53 0.53 0.51 0.49 0.55
0.42 0.43 0.42 0.41 0.43 0.44 0.46 0.50 0.56 0.60 0.62 0.63 0.64 0.68 0.70 0.75 0.80 0.76 0.75 0.78 0.81 0.78 0.74 0.73 0.75 0.81 0.82 0.74 0.67 0.60 0.60 0.61 0.57 0.55 0.54 0.53 0.51 0.49
0.50 0.44 0.40 0.40 0.43 0.49 0.51 0.48 0.51 0.56 0.56 0.55 0.57 0.59 0.59 0.64 0.68 0.67 0.68 0.69 0.68 0.66 0.67 0.71 0.73 0.75 0.76 0.76 0.77 0.72 0.71 0.69 0.67 0.66 0.64 0.58 0.53 0.51
0.48 0.54 0.56 0.60 0.63 0.61 0.58 0.49 0.44 0.45 0.50 0.54 0.54 0.54 0.55 0.54 0.59 0.60 0.59 0.62 0.62 0.56 0.51 0.53 0.58 0.63 0.64 0.62 0.58 0.60 0.66 0.68 0.73 0.75 0.70 0.65 0.58 0.55
0.44 0.59 0.60 0.58 0.54 0.50 0.47 0.40 0.35 0.32 0.34 0.41 0.48 0.55 0.56 0.56 0.60 0.63 0.60 0.54 0.53 0.54 0.51 0.45 0.44 0.49 0.52 0.48 0.45 0.43 0.46 0.53 0.59 0.62 0.63 0.60 0.54 0.54
0.38 0.46 0.45 0.43 0.36 0.29 0.23 0.17 0.16 0.16 0.16 0.21 0.25 0.34 0.48 0.58 0.66 0.69 0.69 0.69 0.67 0.63 0.58 0.51 0.42 0.37 0.38 0.38 0.34 0.30 0.30 0.36 0.44 0.47 0.47 0.49 0.49 0.53
0.18 0.19 0.18 0.19 0.17 0.14 0.10 0.08 0.07 0.07 0.08 0.10 0.14 0.19 0.28 0.40 0.56 0.66 0.69 0.73 0.71 0.71 0.69 0.62 0.59 0.58 0.48 0.43 0.39 0.29 0.26 0.28 0.30 0.32 0.35 0.38 0.39 0.39
0.09 0.08 0.07 0.07 0.07 0.06 0.06 0.06 0.05 0.05 0.06 0.09 0.14 0.19 0.28 0.33 0.37 0.46 0.57 0.61 0.57 0.54 0.56 0.59 0.60 0.60 0.55 0.54 0.49 0.39 0.31 0.29 0.31 0.36 0.33 0.33 0.31 0.29
0.08 0.07 0.07 0.05 0.04 0.05 0.06 0.05 0.04 0.05 0.05 0.07 0.10 0.16 0.23 0.31 0.36 0.37 0.39 0.42 0.47 0.51 0.52 0.53 0.54 0.55 0.57 0.58 0.60 0.56 0.46 0.39 0.37 0.39 0.42 0.50 0.45 0.33